Weather Roundup
Issued by NWS Corpus Christi, TX

Home | Current Version | Previous Version | Text Only | Print | Product List | Glossary On
Versions: 1 2 3 4 5 6 7 8 9 10 11 12 13 14 15 16 17 18 19 20 21 22 23 24 25 26 27 28 29 30 31 32 33 34 35 36 37 38 39 40 41 42 43 44 45 46 47 48 49 50
000
ASUS44 KCRP 280610
HRRCRP

SOUTH TEXAS REGIONAL WEATHER ROUNDUP
NATIONAL WEATHER SERVICE CORPUS CHRISTI TX
100 AM CDT MON JUL 28 2014


TXZ229>244-280700-
...CORPUS CHRISTI AREA OBSERVATIONS...

CITY           SKY/WX    TMP DP  RH WIND       PRES   REMARKS
CORPUS CHRISTI PTCLDY    79  75  87 S7        30.04S
NAS CORPUS CHR CLEAR     82  79  90 S13       30.04S HX  92
ROCKPORT       CLEAR     82  77  84 SE9       30.04S HX  90
KINGSVILLE NAS CLEAR     81  78  91 SE13      30.04S
ALICE          CLEAR     78  75  90 SE8       30.03F
FALFURRIAS     CLEAR     71  71  99 SE7       30.03S
$$

...VICTORIA AREA OBSERVATIONS...

CITY           SKY/WX    TMP DP  RH WIND       PRES   REMARKS
VICTORIA       CLEAR     77  75  93 SE7       30.07R
BEEVILLE       FAIR      76  72  89 SE5       30.06R
PLEASANTON     CLEAR     80  69  69 E6        30.06R
SAN ANTONIO    CLEAR     80  69  69 SE7       30.08R
$$

...LAREDO AREA OBSERVATIONS...

CITY           SKY/WX    TMP DP  RH WIND       PRES   REMARKS
LAREDO         CLEAR     86  66  50 SE10      30.04R
COTULLA        CLEAR     83  71  67 SE12      30.03R
DEL RIO        CLEAR     89  64  43 E13       30.00R HX  90
MCALLEN        PTCLDY    82  76  81 SE14      30.03S
HEBBRONVILLE   CLEAR     80  69  67 SE10      30.05S
$$

...OTHER TEXAS OBSERVATIONS...

CITY           SKY/WX    TMP DP  RH WIND       PRES   REMARKS
BROWNSVILLE    CLEAR     81  77  88 SE9       30.04F
HOUSTON        PTCLDY    82  76  81 SW6       30.06F
COL. STATION   CLEAR     82  74  76 S7        30.06R
AUSTIN         CLEAR     80  68  66 S9        30.07R
WACO           CLEAR     85  71  63 S13       30.03S HX  90
FORT WORTH     CLEAR     87  68  52 SW8       30.01S HX  90
WICHITA FALLS  PTCLDY    86  74  67 E10       30.06R HX  94
LUBBOCK        PTCLDY    80  57  45 SE8       30.16S
EL PASO        CLOUDY    83  55  38 N9        30.13R
$$

...MARINE OBSERVATIONS...

STATION/POSITION TIME  SKY/WX   TEMP    WIND        PRES    VSBY  WAVE   SWELL
                                AIR SEA DIR/SP/G                  HT/PER HT/PER
                 (UTC)          (F)     (DEG/KT/KT) (MB)    (MI)  (FT/S) (FT/S)
PORT ARANSAS     0600            81 83  140/  8/  9 1018.0S
BUOY 90 E PORT A 0600            84 83  160/ 10/ 10 1018.6R         3/ 6   2/ 6
BUOY 45 SE BAFFI 0600            84 84  150/ 16/ 17 1016.9F         3/ 6
BUOY 200 E PT IS 0600            85 86  150/  8/ 10 1018.5F         2/ 5   2/ 5
BUOY 15 E GALVES NOT AVBL
$$


USA.gov is the U.S. government's official web portal to all federal, state and local government web resources and services.